LiveATC.Net - Listen to live air traffic control over the Internet!


ICAO: UUDD  IATA: DME   Airport: Domodedovo International Airport
City: Moscow
Country: Russia   Continent: Europe
UUDD METAR Weather: UUDD 152230Z VRB01MPS CAVOK 12/10 Q1011 R14R/CLRD70 NOSIG
UUDD Flight Activity (FlightAware)

UUDD Twr/App
Feed Status: DOWN
Last heard on: 2019-06-10 16:50:03 (35 days 6 hours 23 minutes ago)
UUDD Twr/App Audio Archives
FacilityFrequency
Domodedovo Tower118.600
Moscow Approach125.300
Moscow Approach127.700

NOTICE

Unauthorized use prohibited. See LiveATC.net Terms of Service


Find LiveATC Audio Streams


Airport/ARTCC Code

Frequency Search
(e.g., 124.400, 128.75)
Site-wide search
 


Browse LiveATC Feeds
Top 50 LiveATC Feeds
LiveATC Feed Map
Bad Weather Areas

LiveATC FAQ
Offer LiveATC feed
Contact LiveATC.net
Press Inquiries

LiveATC on iPhone
LiveATC on Android

Windows Phone
Windows 8/10

LiveATC Mobile
(Mobile browser)

ATC Audio Archives
Interesting Recordings

LiveATC Forums


Home Page
About LiveATC.net
Make a Donation
Terms of Use
Privacy Policy

Canadian Air Freqs

AIRMETs/SIGMETs

FAA Airport Status
Nat'l Airspace Status
Arrival Demand Charts


Server Software By:
Icecast.org
Liquidsoap